Погода в Тайге

Россия / Приморский край     44°36′39″N   135°26′00″E
темп.,
°C
ветер,
м/с
пор.,
м/с
влажн.,
%
обл.,
%
осадки,
мм/ч
давл.,
гПа
погр.,
м
6 декабря, пн
пн601:00−10зсз22855 0.0 102518
04:00−9зсз22865 0.0 102516
07:00−9з22875 0.0 102415
10:00−3зюз12792 0.0 102355
13:00+2юз138323 0.0 1020285
16:00+2зюз388537 0.1 1020465
19:000з4118599 0.0 1022553
22:00−3зсз358988 0.0 1025196
7 декабря, вт
вт701:00−7зсз239015 0.0 102767
04:00−10зсз23929 0.0 102947
07:00−11зсз22929 0.0 103038
10:00−8сз23814 0.0 103196
13:00−2сз13621 0.0 1029505
16:00−2сз11761 0.0 102950
19:00−9сз22885 0.0 103241
22:00−10сз22855 0.0 103242
8 декабря, ср
ср801:00−10сз22781 0.0 103235
04:00−10сз22751 0.0 103236
07:00−10зсз22751 0.0 103233
10:00−6сз22680 0.0 103261
13:000сз24620 0.0 1031383
16:000зсз11834 0.0 103137
19:00−7сз22875 0.0 103433
22:00−8зсз22801 0.0 103428
9 декабря, чт
чт901:00−8зсз22781 0.0 103422
04:00−8зсз22781 0.0 103318
07:00−7сз22771 0.0 103316
10:00−2сз11710 0.0 103125
13:00+3зюз016831 0.0 102973
16:00+1сз119296 0.0 102816
19:00−3зсз2190100 0.0 102914
22:00−4зсз2180100 0.0 102816
10 декабря, пт
пт1001:00−3зсз2180100 0.0 102714
04:00−3зсз2279100 0.0 102620
07:00−3зсз2280100 0.0 102620
10:00+1зсз2389100 0.0 102568
13:00+3зсз1292100 0.0 1023113
16:00+1зсз22100100 0.0 102473
19:00−1зсз229357 0.0 102539
22:00−4зсз23916 0.0 102754